| time (UTC) | temp F | wind direction | speed MPH | gust MPH | rain 1hr in | rain 24hr in | rain mn in | humidity % | barometer mb |
| 20260508132503 | 52 | 39 | 3.0 | 9.0 | 0.00 | 0.05 | 0.02 | 79 | 1017.6 |
| 20260508132218 | 52 | 39 | 3.0 | 9.0 | 0.00 | 0.05 | 0.02 | 79 | 1017.6 |
| 20260508131503 | 52 | 28 | 3.0 | 9.0 | 0.00 | 0.05 | 0.02 | 79 | 1017.6 |
| 20260508131003 | 52 | 31 | 3.0 | 9.0 | 0.00 | 0.05 | 0.02 | 79 | 1017.6 |
| 20260508130503 | 52 | 26 | 2.0 | 6.0 | 0.00 | 0.05 | 0.02 | 78 | 1017.5 |
| 20260508130003 | 52 | 8 | 2.0 | 6.0 | 0.00 | 0.05 | 0.02 | 78 | 1017.5 |
| 20260508125503 | 52 | 18 | 2.0 | 6.0 | 0.00 | 0.05 | 0.02 | 77 | 1017.4 |
| 20260508125003 | 52 | 28 | 2.0 | 6.0 | 0.00 | 0.05 | 0.02 | 77 | 1017.3 |
| 20260508124503 | 53 | 16 | 2.0 | 6.0 | 0.00 | 0.05 | 0.02 | 76 | 1017.4 |
| 20260508124218 | 53 | 2 | 2.0 | 6.0 | 0.00 | 0.05 | 0.02 | 76 | 1017.4 |
| 20260508123503 | 54 | 20 | 3.0 | 11.0 | 0.00 | 0.05 | 0.02 | 76 | 1017.3 |
| 20260508123003 | 54 | 45 | 2.0 | 11.0 | 0.00 | 0.05 | 0.02 | 75 | 1017.2 |
| 20260508122503 | 55 | 60 | 2.0 | 7.0 | 0.00 | 0.05 | 0.02 | 76 | 1017.2 |
| 20260508122003 | 55 | 53 | 2.0 | 7.0 | 0.00 | 0.05 | 0.02 | 74 | 1017.1 |
| 20260508121503 | 55 | 56 | 3.0 | 7.0 | 0.00 | 0.05 | 0.02 | 75 | 1017.0 |
| 20260508121003 | 55 | 45 | 2.0 | 8.0 | 0.00 | 0.05 | 0.02 | 74 | 1017.0 |
| 20260508120503 | 54 | 42 | 2.0 | 8.0 | 0.00 | 0.05 | 0.02 | 75 | 1017.1 |
| 20260508120003 | 54 | 45 | 2.0 | 9.0 | 0.00 | 0.05 | 0.02 | 75 | 1017.0 |
| 20260508115503 | 54 | 39 | 3.0 | 9.0 | 0.00 | 0.05 | 0.02 | 74 | 1017.0 |
| 20260508115003 | 54 | 43 | 3.0 | 8.0 | 0.00 | 0.05 | 0.02 | 75 | 1017.0 |
| 20260508114504 | 54 | 48 | 2.0 | 8.0 | 0.00 | 0.05 | 0.02 | 75 | 1017.0 |
| 20260508114003 | 54 | 61 | 2.0 | 9.0 | 0.00 | 0.05 | 0.02 | 73 | 1016.9 |
| 20260508113503 | 54 | 56 | 2.0 | 9.0 | 0.00 | 0.05 | 0.02 | 77 | 1016.9 |
| 20260508113004 | 54 | 60 | 2.0 | 6.0 | 0.00 | 0.05 | 0.02 | 77 | 1016.9 |
| 20260508112503 | 54 | 69 | 3.0 | 6.0 | 0.00 | 0.05 | 0.02 | 77 | 1016.9 |
| 20260508112003 | 54 | 66 | 3.0 | 7.0 | 0.00 | 0.05 | 0.02 | 77 | 1016.8 |
| 20260508111719 | 54 | 69 | 2.0 | 8.0 | 0.00 | 0.05 | 0.02 | 78 | 1016.8 |
| 20260508111003 | 54 | 85 | 2.0 | 8.0 | 0.00 | 0.05 | 0.02 | 81 | 1016.7 |
| 20260508110503 | 53 | 61 | 2.0 | 5.0 | 0.00 | 0.05 | 0.02 | 82 | 1016.7 |
| 20260508110218 | 53 | 52 | 2.0 | 5.0 | 0.00 | 0.05 | 0.02 | 82 | 1016.8 |
| 20260508105718 | 52 | 45 | 2.0 | 6.0 | 0.00 | 0.05 | 0.02 | 81 | 1016.7 |
| 20260508105003 | 52 | 44 | 2.0 | 6.0 | 0.00 | 0.05 | 0.02 | 82 | 1016.6 |
| 20260508104503 | 52 | 47 | 2.0 | 6.0 | 0.00 | 0.05 | 0.02 | 84 | 1016.7 |
| 20260508104003 | 52 | 63 | 2.0 | 5.0 | 0.00 | 0.05 | 0.02 | 84 | 1016.6 |
| 20260508103503 | 52 | 77 | 2.0 | 5.0 | 0.00 | 0.05 | 0.02 | 85 | 1016.6 |
| 20260508103219 | 52 | 71 | 1.0 | 4.0 | 0.00 | 0.05 | 0.02 | 85 | 1016.6 |
| 20260508102503 | 52 | 61 | 1.0 | 4.0 | 0.00 | 0.05 | 0.02 | 85 | 1016.5 |
| 20260508102003 | 51 | 46 | 1.0 | 4.0 | 0.00 | 0.05 | 0.02 | 85 | 1016.6 |
| 20260508101503 | 51 | 40 | 1.0 | 2.0 | 0.00 | 0.05 | 0.02 | 86 | 1016.6 |
| 20260508101003 | 51 | 53 | 1.0 | 2.0 | 0.00 | 0.05 | 0.02 | 86 | 1016.5 |
| 20260508100503 | 51 | 53 | 1.0 | 3.0 | 0.00 | 0.05 | 0.02 | 86 | 1016.5 |
| 20260508100217 | 51 | 55 | 0.0 | 3.0 | 0.00 | 0.05 | 0.02 | 86 | 1016.5 |
| 20260508095503 | 51 | 309 | 0.0 | 3.0 | 0.01 | 0.05 | 0.02 | 89 | 1016.4 |
| 20260508095219 | 51 | 288 | 0.0 | 3.0 | 0.01 | 0.05 | 0.02 | 90 | 1016.3 |
| 20260508094716 | 51 | 275 | 0.0 | 2.0 | 0.01 | 0.05 | 0.02 | 91 | 1016.3 |
| 20260508094003 | 50 | 269 | 0.0 | 2.0 | 0.02 | 0.05 | 0.02 | 91 | 1016.3 |
| 20260508093504 | 50 | 265 | 0.0 | 2.0 | 0.02 | 0.05 | 0.02 | 92 | 1016.2 |
| 20260508093003 | 50 | 261 | 0.0 | 2.0 | 0.02 | 0.05 | 0.02 | 92 | 1016.2 |
| 20260508092503 | 49 | 261 | 0.0 | 2.0 | 0.02 | 0.05 | 0.02 | 92 | 1016.2 |
| 20260508092003 | 49 | 280 | 1.0 | 3.0 | 0.02 | 0.05 | 0.02 | 92 | 1016.2 |
| 20260508091503 | 49 | 280 | 1.0 | 3.0 | 0.02 | 0.05 | 0.02 | 93 | 1016.2 |
| 20260508091003 | 49 | 271 | 1.0 | 3.0 | 0.02 | 0.05 | 0.02 | 93 | 1016.2 |
| 20260508090503 | 49 | 270 | 1.0 | 3.0 | 0.02 | 0.05 | 0.02 | 93 | 1016.2 |
| 20260508090217 | 49 | 266 | 1.0 | 4.0 | 0.02 | 0.05 | 0.02 | 93 | 1016.2 |
| 20260508085503 | 50 | 282 | 1.0 | 4.0 | 0.01 | 0.04 | 0.01 | 94 | 1016.2 |
| 20260508085003 | 49 | 301 | 1.0 | 3.0 | 0.01 | 0.04 | 0.01 | 93 | 1016.0 |
| 20260508084503 | 49 | 288 | 1.0 | 4.0 | 0.00 | 0.03 | 0.01 | 93 | 1016.0 |
| 20260508084003 | 49 | 287 | 2.0 | 4.0 | 0.00 | 0.03 | 0.00 | 93 | 1016.0 |
| 20260508083503 | 49 | 295 | 1.0 | 4.0 | 0.00 | 0.03 | 0.00 | 93 | 1015.9 |
| 20260508083003 | 49 | 292 | 1.0 | 6.0 | 0.00 | 0.03 | 0.00 | 94 | 1015.9 |
| 20260508082716 | 49 | 292 | 1.0 | 6.0 | 0.00 | 0.03 | 0.00 | 94 | 1015.8 |
| 20260508082003 | 49 | 288 | 1.0 | 2.0 | 0.00 | 0.03 | 0.00 | 94 | 1015.7 |
| 20260508081504 | 49 | 283 | 1.0 | 3.0 | 0.00 | 0.03 | 0.00 | 95 | 1015.6 |
| 20260508081003 | 49 | 264 | 1.0 | 3.0 | 0.00 | 0.03 | 0.00 | 94 | 1015.7 |
| 20260508080503 | 49 | 257 | 0.0 | 2.0 | 0.00 | 0.03 | 0.00 | 95 | 1015.7 |
| 20260508080003 | 49 | 257 | 0.0 | 3.0 | 0.00 | 0.03 | 0.00 | 96 | 1015.5 |
| 20260508075503 | 49 | 257 | 1.0 | 3.0 | 0.00 | 0.03 | 0.00 | 96 | 1015.5 |
| 20260508075003 | 49 | 274 | 1.0 | 3.0 | 0.00 | 0.03 | 0.00 | 96 | 1015.4 |
| 20260508074503 | 49 | 297 | 1.0 | 3.0 | 0.00 | 0.03 | 0.00 | 96 | 1015.4 |
| 20260508074003 | 48 | 293 | 1.0 | 3.0 | 0.00 | 0.03 | 0.00 | 96 | 1015.4 |
| 20260508073717 | 48 | 286 | 1.0 | 4.0 | 0.00 | 0.03 | 0.00 | 96 | 1015.3 |
| 20260508073003 | 48 | 284 | 1.0 | 6.0 | 0.00 | 0.03 | 0.00 | 96 | 1015.3 |
| 20260508072503 | 48 | 285 | 2.0 | 6.0 | 0.00 | 0.03 | 0.00 | 96 | 1015.2 |
| 20260508072003 | 48 | 290 | 2.0 | 4.0 | 0.00 | 0.03 | 0.00 | 96 | 1015.2 |
| 20260508071503 | 48 | 302 | 1.0 | 4.0 | 0.00 | 0.03 | 0.00 | 96 | 1015.1 |
| 20260508071218 | 48 | 300 | 2.0 | 4.0 | 0.00 | 0.03 | 0.00 | 96 | 1015.1 |
| 20260508070503 | 48 | 289 | 2.0 | 5.0 | 0.00 | 0.03 | 0.00 | 96 | 1014.9 |
| 20260508070003 | 48 | 282 | 1.0 | 5.0 | 0.00 | 0.03 | 0.00 | 96 | 1014.9 |
| 20260508065503 | 48 | 272 | 1.0 | 3.0 | 0.00 | 0.03 | 0.00 | 96 | 1014.8 |
| 20260508065218 | 48 | 278 | 1.0 | 3.0 | 0.00 | 0.03 | 0.00 | 96 | 1014.8 |
| 20260508064503 | 48 | 267 | 1.0 | 3.0 | 0.00 | 0.03 | 0.00 | 96 | 1014.8 |
| 20260508064216 | 48 | 270 | 1.0 | 3.0 | 0.00 | 0.03 | 0.00 | 96 | 1014.7 |
| 20260508063717 | 48 | 275 | 1.0 | 4.0 | 0.00 | 0.03 | 0.00 | 96 | 1014.7 |
| 20260508063218 | 48 | 267 | 1.0 | 4.0 | 0.00 | 0.03 | 0.00 | 96 | 1014.7 |
| 20260508062503 | 48 | 264 | 1.0 | 4.0 | 0.00 | 0.03 | 0.00 | 96 | 1014.6 |
| 20260508062003 | 48 | 264 | 2.0 | 4.0 | 0.00 | 0.03 | 0.00 | 96 | 1014.5 |
| 20260508061503 | 48 | 264 | 2.0 | 4.0 | 0.00 | 0.03 | 0.00 | 96 | 1014.5 |
| 20260508061003 | 48 | 266 | 1.0 | 3.0 | 0.00 | 0.03 | 0.00 | 96 | 1014.3 |
| 20260508060503 | 48 | 272 | 1.0 | 4.0 | 0.00 | 0.03 | 0.00 | 96 | 1014.3 |
| 20260508060003 | 48 | 276 | 1.0 | 4.0 | 0.00 | 0.03 | 0.00 | 96 | 1014.2 |
| 20260508055503 | 48 | 291 | 1.0 | 4.0 | 0.00 | 0.03 | 0.00 | 96 | 1014.2 |
| 20260508055218 | 48 | 283 | 1.0 | 4.0 | 0.00 | 0.03 | 0.00 | 96 | 1014.1 |
| 20260508054503 | 48 | 254 | 1.0 | 2.0 | 0.00 | 0.03 | 0.00 | 96 | 1014.1 |
| 20260508054003 | 48 | 254 | 1.0 | 2.0 | 0.00 | 0.03 | 0.00 | 96 | 1014.1 |
| 20260508053503 | 48 | 254 | 0.0 | 2.0 | 0.00 | 0.03 | 0.00 | 96 | 1014.0 |
| 20260508053003 | 48 | 254 | 1.0 | 3.0 | 0.00 | 0.03 | 0.00 | 96 | 1014.0 |
| 20260508052503 | 48 | 254 | 1.0 | 3.0 | 0.00 | 0.03 | 0.00 | 96 | 1014.0 |
| 20260508052003 | 48 | 254 | 1.0 | 3.0 | 0.00 | 0.03 | 0.00 | 96 | 1013.9 |
| 20260508051503 | 48 | 254 | 1.0 | 3.0 | 0.00 | 0.03 | 0.00 | 96 | 1013.9 |
| 20260508051003 | 48 | 254 | 1.0 | 3.0 | 0.00 | 0.03 | 0.00 | 96 | 1013.8 |
| 20260508050503 | 48 | 254 | 1.0 | 2.0 | 0.00 | 0.03 | 0.00 | 96 | 1013.7 |
| 20260508050003 | 48 | 254 | 1.0 | 3.0 | 0.00 | 0.03 | 0.00 | 96 | 1013.8 |
| 20260508045503 | 48 | 254 | 0.0 | 3.0 | 0.00 | 0.03 | 0.00 | 96 | 1013.8 |
| 20260508045003 | 48 | 254 | 0.0 | 2.0 | 0.00 | 0.03 | 0.00 | 96 | 1013.7 |
| 20260508044503 | 48 | 254 | 1.0 | 2.0 | 0.00 | 0.03 | 0.00 | 96 | 1013.8 |
| 20260508044003 | 48 | 254 | 1.0 | 3.0 | 0.00 | 0.03 | 0.00 | 96 | 1013.6 |
| 20260508043716 | 48 | 254 | 1.0 | 3.0 | 0.00 | 0.03 | 0.00 | 96 | 1013.7 |
| 20260508043217 | 48 | 254 | 1.0 | 2.0 | 0.00 | 0.03 | 0.00 | 96 | 1013.6 |
| 20260508042503 | 48 | 254 | 1.0 | 4.0 | 0.00 | 0.03 | 0.00 | 95 | 1013.6 |
| 20260508042219 | 48 | 254 | 1.0 | 4.0 | 0.00 | 0.03 | 0.00 | 95 | 1013.5 |
| 20260508041504 | 48 | 254 | 1.0 | 3.0 | 0.00 | 0.03 | 0.00 | 95 | 1013.4 |
| 20260508041003 | 48 | 254 | 1.0 | 3.0 | 0.00 | 0.03 | 0.00 | 95 | 1013.3 |
| 20260508040503 | 48 | 254 | 0.0 | 3.0 | 0.00 | 0.03 | 0.00 | 95 | 1013.3 |
| 20260508040003 | 48 | 254 | 0.0 | 2.0 | 0.00 | 0.03 | 0.00 | 95 | 1013.2 |
| 20260508035716 | 48 | 254 | 1.0 | 2.0 | 0.00 | 0.03 | 0.00 | 95 | 1013.3 |
| 20260508035217 | 48 | 254 | 0.0 | 2.0 | 0.00 | 0.03 | 0.00 | 95 | 1013.1 |
| 20260508034503 | 48 | 254 | 0.0 | 1.0 | 0.00 | 0.03 | 0.00 | 95 | 1013.1 |
| 20260508034003 | 48 | 254 | 0.0 | 1.0 | 0.00 | 0.03 | 0.00 | 95 | 1013.1 |
| 20260508033503 | 48 | 254 | 0.0 | 1.0 | 0.00 | 0.03 | 0.00 | 94 | 1013.2 |
| 20260508033003 | 49 | 254 | 0.0 | 1.0 | 0.00 | 0.03 | 0.00 | 94 | 1013.1 |
| 20260508032718 | 49 | 254 | 0.0 | 1.0 | 0.00 | 0.03 | 0.00 | 94 | 1013.1 |
| 20260508032219 | 49 | 254 | 0.0 | 2.0 | 0.00 | 0.03 | 0.00 | 94 | 1013.1 |
| 20260508031503 | 49 | 254 | 0.0 | 1.0 | 0.00 | 0.03 | 0.00 | 94 | 1013.1 |
| 20260508031003 | 49 | 254 | 0.0 | 2.0 | 0.00 | 0.03 | 0.00 | 94 | 1013.0 |
| 20260508030503 | 49 | 254 | 0.0 | 2.0 | 0.00 | 0.03 | 0.00 | 94 | 1013.1 |
| 20260508030003 | 49 | 254 | 0.0 | 2.0 | 0.00 | 0.03 | 0.00 | 94 | 1013.0 |
| 20260508025716 | 49 | 254 | 0.0 | 2.0 | 0.00 | 0.03 | 0.00 | 94 | 1013.1 |
| 20260508025003 | 49 | 254 | 0.0 | 1.0 | 0.00 | 0.03 | 0.00 | 94 | 1013.1 |
| 20260508024503 | 49 | 254 | 0.0 | 1.0 | 0.00 | 0.03 | 0.00 | 94 | 1013.1 |
| 20260508024003 | 49 | 254 | 0.0 | 2.0 | 0.00 | 0.03 | 0.00 | 94 | 1013.0 |
| 20260508023503 | 49 | 254 | 1.0 | 2.0 | 0.00 | 0.03 | 0.00 | 94 | 1013.1 |
| 20260508023003 | 49 | 254 | 1.0 | 3.0 | 0.00 | 0.03 | 0.00 | 94 | 1013.1 |
| 20260508022503 | 49 | 253 | 1.0 | 3.0 | 0.00 | 0.03 | 0.00 | 94 | 1013.1 |
| 20260508022003 | 49 | 252 | 1.0 | 3.0 | 0.00 | 0.03 | 0.00 | 94 | 1013.0 |
| 20260508021503 | 49 | 251 | 1.0 | 3.0 | 0.00 | 0.03 | 0.00 | 94 | 1013.0 |
| 20260508021216 | 49 | 252 | 1.0 | 3.0 | 0.00 | 0.03 | 0.00 | 94 | 1012.9 |
| 20260508020503 | 49 | 252 | 1.0 | 3.0 | 0.00 | 0.03 | 0.00 | 93 | 1012.8 |
| 20260508020003 | 49 | 251 | 1.0 | 3.0 | 0.00 | 0.03 | 0.00 | 93 | 1012.8 |
| 20260508015503 | 49 | 235 | 1.0 | 3.0 | 0.00 | 0.03 | 0.00 | 93 | 1012.7 |
| 20260508015003 | 49 | 222 | 1.0 | 3.0 | 0.00 | 0.03 | 0.00 | 93 | 1012.7 |
| 20260508014503 | 49 | 222 | 1.0 | 3.0 | 0.00 | 0.03 | 0.00 | 93 | 1012.6 |
| 20260508014003 | 49 | 222 | 1.0 | 3.0 | 0.00 | 0.03 | 0.00 | 93 | 1012.7 |
| 20260508013719 | 49 | 222 | 1.0 | 3.0 | 0.00 | 0.03 | 0.00 | 93 | 1012.7 |
| 20260508013003 | 49 | 222 | 1.0 | 2.0 | 0.00 | 0.03 | 0.00 | 93 | 1012.7 |
| 20260508012503 | 49 | 222 | 1.0 | 3.0 | 0.00 | 0.03 | 0.00 | 93 | 1012.7 |
| 20260508012003 | 49 | 222 | 1.0 | 3.0 | 0.00 | 0.03 | 0.00 | 93 | 1012.6 |
| 20260508011719 | 49 | 222 | 1.0 | 3.0 | 0.00 | 0.03 | 0.00 | 93 | 1012.6 |
| 20260508011003 | 49 | 215 | 1.0 | 4.0 | 0.00 | 0.03 | 0.00 | 93 | 1012.5 |
| 20260508010503 | 49 | 213 | 1.0 | 4.0 | 0.00 | 0.03 | 0.00 | 93 | 1012.6 |
| 20260508010003 | 50 | 225 | 1.0 | 3.0 | 0.00 | 0.03 | 0.00 | 93 | 1012.7 |
| 20260508005503 | 50 | 245 | 1.0 | 3.0 | 0.00 | 0.03 | 0.00 | 93 | 1012.5 |
| 20260508005216 | 50 | 255 | 1.0 | 3.0 | 0.00 | 0.03 | 0.00 | 93 | 1012.6 |
| 20260508004717 | 50 | 231 | 1.0 | 4.0 | 0.00 | 0.03 | 0.00 | 93 | 1012.5 |
| 20260508004003 | 50 | 217 | 2.0 | 4.0 | 0.00 | 0.03 | 0.00 | 93 | 1012.5 |
| 20260508003719 | 50 | 218 | 2.0 | 4.0 | 0.00 | 0.03 | 0.00 | 93 | 1012.5 |
| 20260508003003 | 50 | 231 | 1.0 | 3.0 | 0.00 | 0.03 | 0.00 | 93 | 1012.5 |
| 20260508002504 | 50 | 231 | 1.0 | 3.0 | 0.00 | 0.03 | 0.00 | 93 | 1012.5 |
| 20260508002004 | 50 | 225 | 1.0 | 3.0 | 0.00 | 0.03 | 0.00 | 93 | 1012.5 |
| 20260508001504 | 50 | 225 | 1.0 | 4.0 | 0.00 | 0.03 | 0.00 | 92 | 1012.5 |
| 20260508001216 | 50 | 225 | 1.0 | 4.0 | 0.00 | 0.03 | 0.00 | 92 | 1012.5 |
| 20260508000503 | 50 | 225 | 1.0 | 3.0 | 0.00 | 0.03 | 0.00 | 92 | 1012.4 |
| 20260508000003 | 50 | 225 | 2.0 | 3.0 | 0.00 | 0.03 | 0.00 | 92 | 1012.5 |
| 20260507235503 | 50 | 225 | 1.0 | 3.0 | 0.00 | 0.03 | 0.00 | 92 | 1012.4 |
| 20260507235003 | 50 | 225 | 1.0 | 3.0 | 0.00 | 0.03 | 0.00 | 92 | 1012.4 |
| 20260507234503 | 50 | 225 | 1.0 | 3.0 | 0.00 | 0.03 | 0.00 | 92 | 1012.2 |
| 20260507234003 | 50 | 224 | 1.0 | 3.0 | 0.00 | 0.03 | 0.00 | 92 | 1012.3 |
| 20260507233503 | 50 | 220 | 1.0 | 3.0 | 0.00 | 0.03 | 0.00 | 92 | 1012.3 |
| 20260507233003 | 50 | 215 | 0.0 | 2.0 | 0.00 | 0.03 | 0.00 | 92 | 1012.2 |
| 20260507232503 | 50 | 215 | 1.0 | 2.0 | 0.00 | 0.03 | 0.00 | 92 | 1012.2 |
| 20260507232003 | 50 | 215 | 0.0 | 2.0 | 0.00 | 0.03 | 0.00 | 92 | 1012.1 |
| 20260507231503 | 50 | 215 | 0.0 | 2.0 | 0.01 | 0.03 | 0.00 | 92 | 1012.2 |
| 20260507231003 | 51 | 215 | 0.0 | 2.0 | 0.01 | 0.03 | 0.00 | 92 | 1012.2 |
| 20260507230717 | 51 | 215 | 0.0 | 2.0 | 0.02 | 0.03 | 0.00 | 92 | 1012.2 |
| 20260507230217 | 51 | 215 | 0.0 | 2.0 | 0.03 | 0.03 | 0.00 | 91 | 1012.2 |
| 20260507225718 | 51 | 215 | 0.0 | 1.0 | 0.03 | 0.03 | 0.03 | 91 | 1012.2 |
| 20260507225219 | 51 | 215 | 0.0 | 1.0 | 0.03 | 0.03 | 0.03 | 91 | 1012.2 |
| 20260507224716 | 51 | 215 | 0.0 | 1.0 | 0.03 | 0.03 | 0.03 | 91 | 1012.2 |
| 20260507224003 | 51 | 215 | 0.0 | 1.0 | 0.03 | 0.03 | 0.03 | 90 | 1012.2 |
| 20260507223503 | 51 | 215 | 0.0 | 1.0 | 0.03 | 0.03 | 0.03 | 90 | 1012.2 |
| 20260507223003 | 51 | 215 | 0.0 | 1.0 | 0.03 | 0.03 | 0.03 | 90 | 1012.2 |
| 20260507222503 | 51 | 215 | 0.0 | 2.0 | 0.03 | 0.03 | 0.03 | 90 | 1012.3 |
| 20260507222217 | 51 | 215 | 0.0 | 2.0 | 0.03 | 0.03 | 0.03 | 89 | 1012.2 |
| 20260507221503 | 51 | 215 | 1.0 | 3.0 | 0.02 | 0.02 | 0.02 | 89 | 1012.2 |
| 20260507221003 | 51 | 215 | 1.0 | 3.0 | 0.02 | 0.02 | 0.02 | 89 | 1012.1 |
| 20260507220503 | 51 | 215 | 1.0 | 3.0 | 0.00 | 0.00 | 0.00 | 89 | 1012.1 |
| 20260507220003 | 51 | 215 | 0.0 | 2.0 | 0.00 | 0.00 | 0.00 | 89 | 1012.1 |
| 20260507215503 | 51 | 215 | 0.0 | 1.0 | 0.00 | 0.00 | 0.00 | 90 | 1012.1 |
| 20260507215003 | 51 | 215 | 0.0 | 2.0 | 0.00 | 0.00 | 0.00 | 90 | 1011.9 |
| 20260507214503 | 51 | 215 | 1.0 | 2.0 | 0.00 | 0.00 | 0.00 | 90 | 1012.0 |
| 20260507214003 | 51 | 207 | 1.0 | 3.0 | 0.00 | 0.00 | 0.00 | 90 | 1011.9 |
| 20260507213503 | 51 | 174 | 1.0 | 3.0 | 0.00 | 0.00 | 0.00 | 90 | 1011.9 |
| 20260507213003 | 51 | 184 | 1.0 | 5.0 | 0.00 | 0.00 | 0.00 | 90 | 1011.9 |
| 20260507212503 | 51 | 214 | 2.0 | 6.0 | 0.00 | 0.00 | 0.00 | 90 | 1011.9 |
| 20260507212003 | 51 | 214 | 2.0 | 6.0 | 0.00 | 0.00 | 0.00 | 90 | 1011.8 |
| 20260507211503 | 51 | 213 | 3.0 | 8.0 | 0.00 | 0.00 | 0.00 | 90 | 1011.9 |
| 20260507211003 | 51 | 198 | 3.0 | 8.0 | 0.00 | 0.00 | 0.00 | 90 | 1011.8 |
| 20260507210503 | 51 | 187 | 2.0 | 6.0 | 0.00 | 0.00 | 0.00 | 90 | 1011.5 |
| 20260507210003 | 51 | 201 | 2.0 | 7.0 | 0.00 | 0.00 | 0.00 | 90 | 1011.4 |
| 20260507205503 | 51 | 193 | 2.0 | 7.0 | 0.00 | 0.00 | 0.00 | 90 | 1011.5 |
| 20260507205003 | 51 | 169 | 3.0 | 7.0 | 0.00 | 0.00 | 0.00 | 90 | 1011.4 |
| 20260507204503 | 52 | 166 | 3.0 | 7.0 | 0.00 | 0.00 | 0.00 | 90 | 1011.2 |
| 20260507204003 | 52 | 172 | 3.0 | 9.0 | 0.00 | 0.00 | 0.00 | 90 | 1011.2 |
| 20260507203717 | 52 | 172 | 3.0 | 9.0 | 0.00 | 0.00 | 0.00 | 90 | 1011.2 |
| 20260507203003 | 52 | 173 | 3.0 | 10.0 | 0.00 | 0.00 | 0.00 | 90 | 1011.2 |
| 20260507202503 | 52 | 180 | 3.0 | 10.0 | 0.00 | 0.00 | 0.00 | 90 | 1011.2 |
| 20260507202003 | 52 | 176 | 4.0 | 9.0 | 0.00 | 0.00 | 0.00 | 90 | 1011.1 |
| 20260507201503 | 52 | 170 | 4.0 | 9.0 | 0.00 | 0.00 | 0.00 | 90 | 1011.1 |
| 20260507201218 | 52 | 170 | 4.0 | 9.0 | 0.00 | 0.00 | 0.00 | 90 | 1011.1 |
| 20260507200719 | 52 | 169 | 5.0 | 12.0 | 0.00 | 0.00 | 0.00 | 90 | 1010.9 |
| 20260507200003 | 52 | 169 | 5.0 | 12.0 | 0.00 | 0.00 | 0.00 | 89 | 1010.9 |
| 20260507195503 | 53 | 171 | 5.0 | 11.0 | 0.00 | 0.00 | 0.00 | 89 | 1010.9 |
| 20260507195003 | 53 | 173 | 5.0 | 12.0 | 0.00 | 0.00 | 0.00 | 88 | 1011.0 |
| 20260507194503 | 53 | 172 | 6.0 | 12.0 | 0.00 | 0.00 | 0.00 | 88 | 1011.0 |
| 20260507194003 | 53 | 170 | 5.0 | 12.0 | 0.00 | 0.00 | 0.00 | 88 | 1011.0 |
| 20260507193717 | 53 | 167 | 4.0 | 11.0 | 0.00 | 0.00 | 0.00 | 88 | 1010.9 |
| 20260507193003 | 53 | 164 | 4.0 | 10.0 | 0.00 | 0.00 | 0.00 | 88 | 1010.9 |
| 20260507192503 | 53 | 165 | 5.0 | 11.0 | 0.00 | 0.00 | 0.00 | 87 | 1010.9 |
| 20260507192003 | 53 | 166 | 5.0 | 11.0 | 0.00 | 0.00 | 0.00 | 87 | 1010.9 |
| 20260507191717 | 53 | 165 | 5.0 | 11.0 | 0.00 | 0.00 | 0.00 | 86 | 1010.9 |
| 20260507191003 | 53 | 168 | 5.0 | 12.0 | 0.00 | 0.00 | 0.00 | 86 | 1011.0 |
| 20260507190503 | 53 | 170 | 6.0 | 12.0 | 0.00 | 0.00 | 0.00 | 85 | 1010.9 |
| 20260507190004 | 54 | 170 | 6.0 | 13.0 | 0.00 | 0.00 | 0.00 | 85 | 1011.0 |
| 20260507185716 | 54 | 169 | 6.0 | 13.0 | 0.00 | 0.00 | 0.00 | 84 | 1011.0 |
| 20260507185003 | 54 | 167 | 6.0 | 13.0 | 0.00 | 0.00 | 0.00 | 83 | 1011.0 |
| 20260507184503 | 54 | 170 | 5.0 | 12.0 | 0.00 | 0.00 | 0.00 | 83 | 1011.0 |
| 20260507184003 | 55 | 171 | 5.0 | 12.0 | 0.00 | 0.00 | 0.00 | 82 | 1011.0 |
| 20260507183503 | 55 | 167 | 5.0 | 11.0 | 0.00 | 0.00 | 0.00 | 82 | 1010.9 |
| 20260507183003 | 55 | 168 | 5.0 | 11.0 | 0.00 | 0.00 | 0.00 | 81 | 1010.9 |
| 20260507182503 | 55 | 171 | 5.0 | 14.0 | 0.00 | 0.00 | 0.00 | 81 | 1010.9 |
| 20260507182219 | 55 | 172 | 6.0 | 14.0 | 0.00 | 0.00 | 0.00 | 81 | 1010.9 |
| 20260507181503 | 55 | 167 | 5.0 | 13.0 | 0.00 | 0.00 | 0.00 | 80 | 1010.9 |
| 20260507181003 | 55 | 167 | 5.0 | 11.0 | 0.00 | 0.00 | 0.00 | 80 | 1010.9 |
| 20260507180503 | 55 | 165 | 4.0 | 12.0 | 0.00 | 0.00 | 0.00 | 80 | 1011.1 |
| 20260507180003 | 55 | 162 | 4.0 | 12.0 | 0.00 | 0.00 | 0.00 | 79 | 1011.1 |
| 20260507175716 | 55 | 165 | 4.0 | 12.0 | 0.00 | 0.00 | 0.00 | 79 | 1011.1 |
| 20260507175217 | 56 | 171 | 4.0 | 13.0 | 0.00 | 0.00 | 0.00 | 79 | 1011.0 |
| 20260507174503 | 56 | 169 | 5.0 | 12.0 | 0.00 | 0.00 | 0.00 | 79 | 1011.0 |
| 20260507174003 | 56 | 173 | 4.0 | 12.0 | 0.00 | 0.00 | 0.00 | 79 | 1011.1 |
| 20260507173503 | 56 | 173 | 4.0 | 10.0 | 0.00 | 0.00 | 0.00 | 80 | 1011.0 |
| 20260507173217 | 56 | 174 | 4.0 | 11.0 | 0.00 | 0.00 | 0.00 | 79 | 1011.2 |
| 20260507172503 | 56 | 170 | 5.0 | 12.0 | 0.00 | 0.00 | 0.00 | 79 | 1011.1 |
| 20260507172219 | 56 | 166 | 5.0 | 12.0 | 0.00 | 0.00 | 0.00 | 79 | 1011.1 |
| 20260507171503 | 56 | 165 | 5.0 | 12.0 | 0.00 | 0.00 | 0.00 | 79 | 1011.1 |
| 20260507171003 | 56 | 169 | 5.0 | 12.0 | 0.00 | 0.00 | 0.00 | 80 | 1011.1 |
| 20260507170503 | 56 | 166 | 5.0 | 11.0 | 0.00 | 0.00 | 0.00 | 80 | 1011.1 |
| 20260507170003 | 56 | 162 | 5.0 | 12.0 | 0.00 | 0.00 | 0.00 | 80 | 1011.1 |
| 20260507165504 | 56 | 169 | 5.0 | 13.0 | 0.00 | 0.00 | 0.00 | 80 | 1011.2 |
| 20260507165003 | 56 | 167 | 6.0 | 13.0 | 0.00 | 0.00 | 0.00 | 80 | 1011.2 |
| 20260507164503 | 56 | 166 | 7.0 | 14.0 | 0.00 | 0.00 | 0.00 | 79 | 1011.2 |
| 20260507164003 | 56 | 166 | 6.0 | 15.0 | 0.00 | 0.00 | 0.00 | 79 | 1011.2 |
| 20260507163503 | 56 | 164 | 6.0 | 15.0 | 0.00 | 0.00 | 0.00 | 79 | 1011.2 |
| 20260507163003 | 57 | 166 | 6.0 | 14.0 | 0.00 | 0.00 | 0.00 | 78 | 1011.2 |
| 20260507162718 | 56 | 169 | 6.0 | 14.0 | 0.00 | 0.00 | 0.00 | 78 | 1011.2 |
| 20260507162003 | 56 | 167 | 6.0 | 13.0 | 0.00 | 0.00 | 0.00 | 78 | 1011.2 |
| 20260507161503 | 56 | 168 | 6.0 | 15.0 | 0.00 | 0.00 | 0.00 | 77 | 1011.2 |
| 20260507161003 | 56 | 170 | 6.0 | 15.0 | 0.00 | 0.00 | 0.00 | 78 | 1011.1 |
| 20260507160717 | 55 | 169 | 5.0 | 12.0 | 0.00 | 0.00 | 0.00 | 79 | 1011.2 |
| 20260507160003 | 55 | 166 | 6.0 | 15.0 | 0.00 | 0.00 | 0.00 | 78 | 1011.3 |
| 20260507155719 | 55 | 166 | 6.0 | 15.0 | 0.00 | 0.00 | 0.00 | 77 | 1011.3 |
| 20260507155003 | 56 | 167 | 6.0 | 16.0 | 0.00 | 0.00 | 0.00 | 75 | 1011.3 |
| 20260507154503 | 56 | 172 | 6.0 | 16.0 | 0.00 | 0.00 | 0.00 | 73 | 1011.3 |
| 20260507154003 | 57 | 179 | 5.0 | 14.0 | 0.00 | 0.00 | 0.00 | 72 | 1011.3 |
| 20260507153504 | 57 | 173 | 6.0 | 17.0 | 0.00 | 0.00 | 0.00 | 71 | 1011.2 |
| 20260507153003 | 57 | 167 | 6.0 | 17.0 | 0.00 | 0.00 | 0.00 | 72 | 1011.2 |
| 20260507152503 | 58 | 166 | 6.0 | 15.0 | 0.00 | 0.00 | 0.00 | 72 | 1011.2 |
| 20260507152218 | 58 | 166 | 6.0 | 15.0 | 0.00 | 0.00 | 0.00 | 72 | 1011.2 |
| 20260507151504 | 59 | 163 | 5.0 | 14.0 | 0.00 | 0.00 | 0.00 | 72 | 1011.1 |
| 20260507151216 | 58 | 164 | 5.0 | 14.0 | 0.00 | 0.00 | 0.00 | 71 | 1011.2 |
| 20260507150503 | 58 | 162 | 5.0 | 11.0 | 0.00 | 0.00 | 0.00 | 68 | 1011.2 |
| 20260507150003 | 59 | 158 | 5.0 | 11.0 | 0.00 | 0.00 | 0.00 | 67 | 1011.2 |
| 20260507145503 | 59 | 155 | 4.0 | 11.0 | 0.00 | 0.00 | 0.00 | 67 | 1011.3 |
| 20260507145003 | 58 | 159 | 5.0 | 12.0 | 0.00 | 0.00 | 0.00 | 65 | 1011.3 |
| 20260507144503 | 58 | 166 | 6.0 | 12.0 | 0.00 | 0.00 | 0.00 | 64 | 1011.4 |
| 20260507144218 | 57 | 167 | 6.0 | 12.0 | 0.00 | 0.00 | 0.00 | 65 | 1011.3 |
| 20260507143503 | 58 | 170 | 6.0 | 16.0 | 0.00 | 0.00 | 0.00 | 62 | 1011.4 |
| 20260507143003 | 57 | 169 | 5.0 | 16.0 | 0.00 | 0.00 | 0.00 | 61 | 1011.6 |
| 20260507142503 | 57 | 163 | 4.0 | 10.0 | 0.00 | 0.00 | 0.00 | 66 | 1011.6 |
| 20260507142003 | 56 | 165 | 4.0 | 12.0 | 0.00 | 0.00 | 0.00 | 66 | 1011.6 |
| 20260507141503 | 56 | 165 | 5.0 | 13.0 | 0.00 | 0.00 | 0.00 | 67 | 1011.6 |
| 20260507141003 | 56 | 167 | 6.0 | 14.0 | 0.00 | 0.00 | 0.00 | 65 | 1011.6 |
| 20260507140503 | 57 | 164 | 6.0 | 14.0 | 0.00 | 0.00 | 0.00 | 66 | 1011.6 |
| 20260507140003 | 57 | 168 | 5.0 | 13.0 | 0.00 | 0.00 | 0.00 | 65 | 1011.6 |
| 20260507135503 | 57 | 174 | 5.0 | 13.0 | 0.00 | 0.00 | 0.00 | 68 | 1011.5 |
| 20260507135003 | 56 | 165 | 6.0 | 11.0 | 0.00 | 0.00 | 0.00 | 70 | 1011.6 |
| 20260507134503 | 56 | 162 | 6.0 | 14.0 | 0.00 | 0.00 | 0.00 | 70 | 1011.8 |
| 20260507134003 | 56 | 167 | 6.0 | 14.0 | 0.00 | 0.00 | 0.00 | 71 | 1011.7 |
| 20260507133504 | 56 | 166 | 6.0 | 12.0 | 0.00 | 0.00 | 0.00 | 71 | 1011.7 |
| 20260507133003 | 56 | 173 | 5.0 | 10.0 | 0.00 | 0.00 | 0.00 | 71 | 1011.6 |